{"data":{"norad_id":68511,"intl_designator":"2026-068D","name":"STARLINK-37280","alt_names":[],"object_type":"PAYLOAD","status":"ACTIVE","operator":null,"country":"US","launch_date":"2026-03-30","launch_site_code":"AFETR","launch_vehicle":null,"mission":null,"orbit_class":"UNKNOWN","rcs_meters":null,"size_class":null,"mass_kg":null,"dimensions":null,"purposes":["comms"],"wikipedia_slug":null,"has_3d_model":false,"image_url":null,"decayed_at":null,"tle_current":{"epoch":"2026-05-25T02:45:35.491104Z","epoch_age_seconds":61196,"freshness":"FRESH","line1":"1 68511U 26068D   26145.11499411  .00034169  00000+0  61917-3 0  9990","line2":"2 68511  53.1587 127.9405 0001051  84.4444 275.6685 15.49334565  8737","mean_motion":15.49334565,"eccentricity":0.0001051,"inclination_deg":53.1587,"raan_deg":127.9405,"arg_perigee_deg":84.4444,"mean_anomaly_deg":275.6685,"bstar":0.00061917,"rev_number":873,"period_min":92.943127490349,"perigee_km":417.95716892327,"apogee_km":419.3858580728,"semimajor_km":6796.808513498,"source":"CELESTRAK","updated_at":"2026-05-25T13:38:21.952932Z"}}}